Longmont, CO

8:57 PM MDT on August 24, 2016 (GMT -0600)
Lemoore (Abandoned) Willett A

Weather History for KLMO - August, 2013

Change the Weather History Date:

Wednesday, August 21, 2013

  Actual Average (KBDU) Record (KBDU)
Temperature  
Mean Temperature 79 °F -  
Max Temperature 95 °F - 93 °F (2015)
Min Temperature 63 °F - 50 °F (2016)
Degree Days  
Heating Degree Days 0    
Month to date heating degree days  
Cooling Degree Days 14    
Month to date cooling degree days  
Growing Degree Days 29 (Base 50)    
Moisture  
Dew Point 48 °F    
Average Humidity 37    
Maximum Humidity 63    
Minimum Humidity 16    
Precipitation  
Precipitation 0.00 in - 0.02 in (2013)
Sea Level Pressure  
Sea Level Pressure 30.14 in    
Wind  
Wind Speed 4 mph (East)    
Max Wind Speed 20 mph    
Max Gust Speed 25 mph    
Visibility 10 miles    
Events Rain    
T = Trace of Precipitation, MM = Missing Value Source: NWS Daily Summary

Daily Weather History Graph

Daily Weather History Graph

Search for Another Location

Airport or City:

Trip Planner

Search our weather history database for the weather conditions in past years. The results will help you decide how hot, cold, wet, or windy it might be!

Date:

Astronomy

Aug. 21, 2013 Rise Set
Actual Time 6:18 AM MDT 7:48 PM MDT
Civil Twilight 5:49 AM MDT 8:17 PM MDT
Nautical Twilight 5:14 AM MDT 8:51 PM MDT
Astronomical Twilight 4:38 AM MDT 9:27 PM MDT
Moon 7:58 PM MDT (8/21) 7:01 AM MDT (8/21)
Length of Visible Light 14h 27m
Length of Day
13h 30m
Full, 99% of the Moon is Illuminated
Aug 21
Full
Aug 28
Last Quarter
Sep 5
New
Sep 12
First Quarter
Sep 19
Full

Hourly Weather History & Observations

Time (MDT) Temp. Heat Index Dew Point Humidity Pressure Visibility Wind Dir Wind Speed Gust Speed Precip Events Conditions
12:13 AM 72.1 °F - 43.2 °F 35% 30.09 in 10.0 mi WNW 4.6 mph - N/A   Clear
12:33 AM 71.1 °F - 43.7 °F 37% 30.09 in 10.0 mi Calm Calm - N/A   Clear
12:53 AM 73.8 °F - 45.5 °F 36% 30.10 in 10.0 mi NE 8.1 mph - N/A   Clear
1:13 AM 74.7 °F - 42.8 °F 32% 30.10 in 10.0 mi NW 3.5 mph - N/A   Clear
1:27 AM 69.8 °F - 43.7 °F 39% 30.10 in 10.0 mi Calm Calm - N/A   Clear
1:53 AM 69.1 °F - 45.3 °F 42% 30.10 in 10.0 mi Calm Calm - N/A   Clear
2:13 AM 66.9 °F - 47.3 °F 49% 30.10 in 10.0 mi Calm Calm - N/A   Clear
2:16 AM 66.9 °F - 46.9 °F 49% 30.10 in 10.0 mi SW 3.5 mph - N/A   Clear
2:53 AM 66.0 °F - 48.2 °F 53% 30.10 in 10.0 mi Calm Calm - N/A   Clear
3:13 AM 66.4 °F - 49.3 °F 54% 30.10 in 10.0 mi WSW 3.5 mph - N/A   Clear
3:33 AM 66.2 °F - 47.3 °F 51% 30.10 in 10.0 mi Calm Calm - N/A   Clear
3:53 AM 67.5 °F - 46.9 °F 48% 30.10 in 10.0 mi WNW 3.5 mph - N/A   Clear
4:13 AM 67.5 °F - 47.7 °F 49% 30.11 in 10.0 mi WNW 3.5 mph - N/A   Clear
4:33 AM 68.5 °F - 46.9 °F 46% 30.11 in 10.0 mi Calm Calm - N/A   Clear
4:53 AM 68.9 °F - 46.4 °F 44% 30.11 in 10.0 mi WSW 4.6 mph - N/A   Clear
5:13 AM 69.1 °F - 47.5 °F 46% 30.11 in 10.0 mi West 5.8 mph - N/A   Clear
5:33 AM 69.3 °F - 47.1 °F 45% 30.11 in 10.0 mi WNW 3.5 mph - N/A   Clear
5:53 AM 68.4 °F - 46.9 °F 46% 30.12 in 10.0 mi Calm Calm - N/A   Clear
6:13 AM 68.2 °F - 48.6 °F 49% 30.12 in 10.0 mi Calm Calm - N/A   Clear
6:33 AM 66.2 °F - 50.5 °F 57% 30.13 in 10.0 mi Calm Calm - N/A   Clear
6:53 AM 66.7 °F - 50.0 °F 55% 30.13 in 7.0 mi Calm Calm - N/A   Clear
7:13 AM 63.9 °F - 49.5 °F 59% 30.13 in 10.0 mi West 4.6 mph - N/A   Clear
7:33 AM 67.8 °F - 50.5 °F 54% 30.14 in 10.0 mi Calm Calm - N/A   Clear
7:53 AM 72.1 °F - 53.1 °F 51% 30.14 in 10.0 mi Calm Calm - N/A   Clear
8:13 AM 74.7 °F - 51.1 °F 44% 30.15 in 10.0 mi Calm Calm - N/A   Clear
8:33 AM 79.2 °F - 47.5 °F 33% 30.15 in 10.0 mi Calm Calm - N/A   Clear
8:53 AM 78.3 °F - 49.8 °F 37% 30.15 in 10.0 mi Calm Calm - N/A   Clear
9:13 AM 81.5 °F - 49.1 °F 32% 30.15 in 10.0 mi Calm Calm - N/A   Clear
9:33 AM 84.6 °F - 49.3 °F 29% 30.15 in 10.0 mi Calm Calm - N/A   Clear
9:53 AM 86.5 °F - 46.8 °F 25% 30.15 in 10.0 mi SSE 6.9 mph - N/A   Clear
10:13 AM 87.4 °F - 47.5 °F 25% 30.15 in 10.0 mi SE 9.2 mph - N/A   Clear
10:26 AM 88.3 °F - 45.5 °F 23% 30.15 in 10.0 mi ESE 8.1 mph - N/A   Clear
10:53 AM 89.2 °F - 44.4 °F 21% 30.15 in 10.0 mi SE 9.2 mph 16.1 mph N/A   Clear
11:13 AM 90.5 °F - 46.6 °F 22% 30.15 in 10.0 mi East 12.7 mph 16.1 mph N/A   Clear
11:33 AM 91.8 °F - 46.8 °F 21% 30.15 in 10.0 mi ESE 10.4 mph - N/A   Clear
11:53 AM 91.6 °F - 43.7 °F 19% 30.15 in 10.0 mi SE 9.2 mph - N/A   Clear
12:13 PM 91.2 °F - 43.3 °F 19% 30.15 in 10.0 mi SSE 8.1 mph - N/A   Clear
12:33 PM 91.4 °F - 45.1 °F 20% 30.15 in 7.0 mi SSE 6.9 mph - N/A   Clear
12:53 PM 91.0 °F - 44.2 °F 20% 30.15 in 10.0 mi SSE 6.9 mph - N/A   Clear
1:13 PM 92.1 °F - 43.5 °F 19% 30.14 in 7.0 mi ESE 8.1 mph - N/A   Clear
1:33 PM 91.4 °F - 44.2 °F 19% 30.14 in 10.0 mi East 5.8 mph - N/A   Clear
1:53 PM 90.5 °F - 46.9 °F 22% 30.14 in 10.0 mi ENE 5.8 mph - N/A   Clear
2:13 PM 95.0 °F - 45.1 °F 18% 30.14 in 10.0 mi ENE 8.1 mph - N/A   Clear
2:33 PM 92.7 °F - 43.3 °F 18% 30.13 in 10.0 mi NNE 5.8 mph - N/A   Clear
2:53 PM 91.6 °F - 41.5 °F 17% 30.13 in 10.0 mi NNE 4.6 mph - N/A   Clear
3:13 PM 95.5 °F - 42.1 °F 16% 30.11 in 10.0 mi NNE 5.8 mph - N/A   Clear
3:33 PM 95.7 °F - 44.2 °F 17% 30.11 in 10.0 mi ENE 6.9 mph - N/A   Clear
3:53 PM 91.4 °F - 46.8 °F 21% 30.12 in 10.0 mi NE 17.3 mph 20.7 mph N/A   Scattered Clouds
4:13 PM 90.0 °F - 48.6 °F 24% 30.12 in 10.0 mi NE 13.8 mph 17.3 mph N/A   Scattered Clouds
4:31 PM 88.0 °F - 48.4 °F 25% 30.13 in 10.0 mi NNE 8.1 mph - N/A   Mostly Cloudy
4:53 PM 85.6 °F - 51.3 °F 30% 30.13 in 10.0 mi ENE 10.4 mph - N/A Rain Rain
5:13 PM 90.5 °F - 46.8 °F 22% 30.12 in 10.0 mi North 5.8 mph - N/A   Mostly Cloudy
5:33 PM 91.0 °F - 45.1 °F 20% 30.12 in 10.0 mi SSW 4.6 mph - N/A   Clear
5:53 PM 89.2 °F - 46.6 °F 23% 30.12 in 10.0 mi WSW 4.6 mph - N/A   Clear
6:13 PM 87.1 °F - 52.0 °F 30% 30.12 in 10.0 mi SSW 15.0 mph 20.7 mph N/A   Clear
6:33 PM 82.4 °F 81.3 °F 53.2 °F 36% 30.13 in 10.0 mi SSW 19.6 mph 24.2 mph N/A   Clear
6:53 PM 79.2 °F - 53.6 °F 41% 30.15 in 10.0 mi SSW 19.6 mph 25.3 mph N/A   Clear
7:13 PM 77.0 °F - 52.9 °F 43% 30.16 in 10.0 mi SSW 10.4 mph - N/A   Scattered Clouds
7:33 PM 76.5 °F - 53.4 °F 45% 30.16 in 10.0 mi SW 9.2 mph - N/A   Scattered Clouds
7:53 PM 76.5 °F - 52.7 °F 43% 30.17 in 10.0 mi SW 4.6 mph - N/A   Clear
8:13 PM 75.2 °F - 53.8 °F 47% 30.17 in 10.0 mi SSW 3.5 mph - N/A   Clear
8:33 PM 75.2 °F - 52.9 °F 46% 30.17 in 10.0 mi Calm Calm - N/A   Clear
8:53 PM 74.7 °F - 53.2 °F 47% 30.17 in 10.0 mi Calm Calm - N/A   Clear
9:13 PM 73.0 °F - 54.3 °F 52% 30.18 in 10.0 mi Calm Calm - N/A   Clear
9:33 PM 72.0 °F - 55.4 °F 56% 30.18 in 10.0 mi Calm Calm - N/A   Clear
9:53 PM 72.5 °F - 54.7 °F 53% 30.18 in 10.0 mi Calm Calm - N/A   Clear
10:13 PM 69.4 °F - 56.3 °F 63% 30.18 in 10.0 mi Calm Calm - N/A   Scattered Clouds
10:28 PM 69.6 °F - 56.3 °F 63% 30.19 in 10.0 mi North 5.8 mph - N/A   Clear
10:53 PM 73.2 °F - 53.6 °F 50% 30.19 in 10.0 mi NNE 6.9 mph - N/A   Clear
11:13 PM 73.6 °F - 53.8 °F 50% 30.20 in 10.0 mi North 5.8 mph - N/A   Clear
11:33 PM 73.4 °F - 53.6 °F 50% 30.21 in 10.0 mi North 5.8 mph - N/A   Clear
11:53 PM 72.5 °F - 54.1 °F 52% 30.21 in 10.0 mi NNW 5.8 mph - N/A   Clear